Location: Unspecified
(0.0000°N, 0.0000°E)
Time: 19:59:58
(UTC+00:00)

ARIANE 1 DEB - Pass Details

Date: 22 February 2026
Orbit: 376 x 19604 km, 19.8° (Epoch: 20 January)

Event Time Altitude Azimuth Distance (km) Brightness Sun altitude
Exits shadow 04:59:52 - 221° (SW) 2,966 ? -18.1°
Reaches altitude 10° 05:00:43 10° 215° (SW) 2,738 ? -17.9°
Maximum altitude 05:06:58 38° 145° (SE) 2,807 ? -16.4°
Drops below altitude 10° 05:38:35 10° 83° (E) 12,399 ? -8.6°
Sets 06:17:14 0° 76° (ENE) 19,838 ? 0.9°
